Home   Weather   Belo Horizonte   Past weeks

Flag for Brazil Past Weather in Belo Horizonte, Minas Gerais, Brazil — Yesterday and Last 2 Weeks

Now
59 °F

Clear.


Feels Like: 58 °F
Forecast: 60 / 85 °F
Wind: 6 mph from Southeast

Location: Belo Horizonte Airport

Current Time: Aug 20, 2017 at 7:09:11 am

Latest Report: Aug 20, 2017 at 6:00 am


Visibility: 10 mi

Pressure: 30.09 "Hg (27.17 "Hg at 860m altitude)

Humidity: 82%

Dew Point: 54 °F

Location of Belo HorizonteLocation

Past Weather in Belo Horizonte — Graph

°F

Belo Horizonte Temperature Yesterday

Maximum temperature yesterday: 82 °F (at 3:00 pm)
Minimum temperature yesterday: 61 °F (at 6:00 am)
Average temperature yesterday: 70 °F

High & Low Weather Summary for the Past Weeks

 TemperatureHumidityPressure
High86 °F (Aug 10, 1:00 pm)94% (Aug 7, 2:00 am)30.27 "Hg (Aug 7, 2:00 am)
Low52 °F (Aug 7, 2:00 am)20% (Aug 10, 3:00 pm)30.01 "Hg (Aug 19, 2:00 pm)
Average68 °F57%30.13 "Hg
* Reported Aug 5 6:00 am — Aug 20 6:00 am, Belo Horizonte. Weather by CustomWeather, © 2017

Note: Actual official high and low records may vary slightly from our data, if they occured in-between our weather recording intervals... More about our weather records

Advertising

Belo Horizonte Weather History for the Previous 24 Hours

Scroll right to see more
 ConditionsComfort  
Time TempWeatherWind HumidityBarometerVisibility
6:00 am
Sun, Aug 20
59 °FClear.6 mph82%30.09 "Hg10 mi
5:00 am59 °FClear.6 mph82%30.09 "Hg10 mi
4:00 am59 °FClear.6 mph82%30.09 "Hg10 mi
3:00 am61 °FClear.7 mph83%30.07 "Hg10 mi
2:00 am61 °FClear.8 mph83%30.09 "Hg10 mi
1:00 am61 °FClear.8 mph83%30.09 "Hg10 mi
12:00 am61 °FClear.6 mph83%30.12 "Hg10 mi
11:00 pm
Sat, Aug 19
63 °FClear.7 mph77%30.12 "Hg10 mi
10:00 pm64 °FClear.8 mph73%30.12 "Hg10 mi
9:00 pm64 °FClear.5 mph73%30.09 "Hg10 mi
8:00 pm68 °FClear.12 mph60%30.09 "Hg10 mi
7:00 pm70 °FClear.13 mph57%30.07 "Hg10 mi
6:00 pm72 °FClear.14 mph53%30.07 "Hg10 mi
5:00 pm77 °FSunny.14 mph44%30.04 "Hg10 mi
4:00 pm81 °FSunny.7 mph32%30.01 "Hg10 mi
3:00 pm82 °FSunny.8 mph32%30.01 "Hg10 mi
2:00 pm81 °FSunny.7 mph34%30.01 "Hg10 mi
1:00 pm81 °FSunny.5 mph37%30.07 "Hg10 mi
12:00 pm79 °FSunny.8 mph37%30.09 "Hg10 mi
11:00 am77 °FSunny.10 mph42%30.12 "Hg10 mi
10:00 am73 °FSunny.6 mph50%30.12 "Hg10 mi
9:00 am70 °FSunny.7 mph57%30.12 "Hg10 mi
8:00 am66 °FSunny.7 mph64%30.12 "Hg10 mi
7:00 am61 °FSunny.3 mph77%30.12 "Hg10 mi
Weather by CustomWeather, © 2017

See weather overviewHow to use our weather pages